Location: Dallas
(32.7833°N, 96.8000°W)
Time: 02:11:13
(UTC-06:00)

Envisat - Pass Details

Date: 25 January 2021
Orbit: 764 x 766 km, 98.1° (Epoch: 04 March)

Event Time Altitude Azimuth Distance (km) Brightness Sun altitude
Rises 05:18:41 0° 27° (NNE) 3,234 6.5 -26.7°
Reaches altitude 10° 05:21:21 10° 39° (NE) 2,304 5.8 -26.2°
Maximum altitude 05:25:35 26° 96° (E) 1,456 5.1 -25.3°
Drops below altitude 10° 05:29:48 10° 153° (SSE) 2,291 5.9 -24.4°
Sets 05:32:25 0° 165° (SSE) 3,212 6.5 -23.9°
